Location: Newark
(46.3192°N, 6.0700°E)
Time: 01:48:23
(UTC+00:00)

OTV 5 (USA 277) - Visible Passes

Search period start: 16 October 2019 00:00
Search period end: 26 October 2019 00:00
Orbit: 310 x 324 km, 54.5° (Epoch: 08 October)

Date Brightness Start Highest point End Pass type
(mag) Time Alt. Az. Time Alt. Az. Time Alt. Az.
16 Oct ? 04:07:19 22° N 04:07:42 23° NNE 04:09:58 10° ENE visible
17 Oct ? 04:21:38 29° NNW 04:22:26 37° NNE 04:25:01 10° E visible
18 Oct ? 04:36:01 34° NW 04:37:03 84° NNE 04:39:47 10° ESE visible
19 Oct ? 03:19:36 10° E 03:19:36 10° E 03:19:38 10° E visible
19 Oct ? 04:50:31 26° W 04:51:33 37° SW 04:54:07 10° SSE visible
20 Oct ? 03:34:13 13° ESE 03:34:13 13° ESE 03:34:34 10° ESE visible
20 Oct ? 05:05:08 14° WSW 05:05:55 16° SW 05:07:40 10° S visible
21 Oct ? 03:48:58 11° SE 03:48:58 11° SE 03:49:08 10° SE visible
